Погода в Кыре

Погода в Кыре : погода сейчас, прогноз погоды и архив. Всё, что Вы хотите узнать о погоде в Кыре!

Хотите узнать прогноз погоды в Кыре? Тогда Вам сюда: Погода в Кыре

Поиск расширенной информации на нашем сайте:

Другие новости

Новости СМИ2

Главная страница сайта

Новости сайта

03.07.2017

Напоминаем, что на нашем специализированном сайте Метеоцентр.Азия вы можете получить высокодетализированные автоматические прогнозы погоды по пунктам России, СНГ и мира в авиационном формате (включающие направление и скорость ветра, видимость, явления погоды, количество и форму облачности, нижнюю и верхнюю границу облачности).


Погода в Кыре - сегодня

Время (UTC), дата Ветер
(°,м/с) 
Видим.   Явления Облачность Т
(°С)
Тd
(°С)
f(%) Тe
(°С)
Pmin
(гПа)
dP
(гПа)
Po
(мм)
O2
(г/м3)
Тmin Tmax R s Состояние
почвы
15 17.10.17 350 (С) н/о    ясно 
-6.3 -11.8 65 -6  1026.1  1.3  686  284           
18 17.10.17 010 (С) н/о    ясно 
-6.3 -11.8 65 -6  1026.1  0.4  686  284           
21 17.10.17 тихо ()   н/о    ясно 
-9.6 -13 76 -10  1028.6  0.6  687  288           
00 18.10.17 тихо ()   20000 м    3/3 1000 м 
[Sc]
-7.5 -11.3 74 -8  1029.1  1.2  688  286  -10.5         
03 18.10.17 270 (З) 20000 м    3/3 1000 м верхняя 
[Sc|Ci fib]
+6.7 -6.4 39 +5  1022.3  -0.7  687  271           
06 18.10.17 280 (З) 20000 м    4/3 1000 м средняя, верхняя 
[Sc|Ac trans|Ci fib]
+10.2 -7.8 27 +9  1019.5  -1.3  686  267           
09 18.10.17 340 (С) 20000 м    4/3 1000 м средняя, верхняя 
[Sc|Ac trans|Ci fib]
+7.9 -8.3 31 +8  1020.1  -0.3  686  269           
12 18.10.17 080 (В) н/о    4/0 средняя, верхняя 
[Ac trans|Ci fib]
-1.9 -8.5 61 -1  1025.1  0.9  687  279    +10.4       
15 18.10.17 160 (Ю) н/о    ясно 
-6.2 -9.8 76 -6  1027.4  0.4  687  284           
18 18.10.17 тихо ()   н/о    ясно 
-7.9 -10.3 83 -8  1027.7  -0.5  687  286           
21 18.10.17 тихо ()   н/о    ясно 
-7.5 -10.2 81 -8  1026  -1.4  686  285           
00 19.10.17 тихо ()   20000 м    ясно 
-7.2 -10.3 78 -7  1025.1  -0.6  685  284  -9.4         
03 19.10.17 230 (ЮЗ) 20000 м    ясно 
+3 -6.6 49 +4  1018.9  -1.7  684  273           
06 19.10.17 220 (ЮЗ) 20000 м    ясно 
+10.7 -6.6 29 +12  1018.9  -3  682  265           
09 19.10.17 240 (ЮЗ) 20000 м    ясно 
+11.5 -8.1 24 +13  1011.1  -1.1  681  264           
12 19.10.17 тихо ()   н/о    3/0 средняя 
[Ac lent]
-0.6 -8.8 54 -1  1017.2  1.2  682  276    +13       
15 19.10.17 210 (ЮЗ) н/о    4/0 средняя, верхняя 
[Ac trans|Ci fib]
-2.8 -8.6 64 -4  1019.6  1.3  683  279           
18 19.10.17 060 (СВ) н/о    4/0 средняя, верхняя 
[Ac trans|Ci fib]
-6.4 -10.2 74 -6  1022.5  1.2  684  283           
21 19.10.17 тихо ()   н/о    3/0 верхняя 
[Ci fib]
-7 -9.9 80 -7  1023.8  684  284           
00 20.10.17 330 (СЗ) 20000 м    3/0 верхняя 
[Ci fib]
-0.3 -7.3 59 -2  1022.6  1.5  686  277  -7.9         
03 20.10.17 320 (СЗ) 20000 м    3/3 1000 м 
[Cu hum]
+3.7 -11.4 32 +2  1022.8  1.6  687  274           
06 20.10.17 320 (СЗ) 20000 м    ясно 
+6.3 -14.8 20 +5  1020.6  -1.1  686  271           
09 20.10.17 360 (С) 20000 м    ясно 
+5.8 -15.3 20 +6  1021  0.2  686  272           
12 20.10.17 010 (С) н/о    3/0 средняя 
[Ac lent]
-3.5 -13.3 47 -3  1026.6  1.6  687  282    +7       
15 20.10.17 330 (СЗ) н/о    ясно 
-7.3 -13.5 61 -7  1029.5  1.2  688  286           
Время (UTC), дата Ветер
(°,м/с) 
Видим.   Явления Облачность Т
(°С)
Тd
(°С)
f(%) Тe
(°С)
Pmin
(гПа)
dP
(гПа)
Po
(мм)
O2
(г/м3)
Тmin Tmax R s Состояние
почвы

Для получения пояснительной информации подведите курсор к названию столбца.

ПОГОДА в Кыре - архив

Всё, что Вы хотите узнать о погоде в Кыре - удобно и подробно!

Выберите нужную дату (начиная с 1 января 2015* года) и нажмите кнопку "Найти".
Будут отображены архивные сводки погоды по пункту Кыра, начиная с указанной даты.


Отображать данные в формате CSV (для использования в таблицах Excel)


Внимание! Наш архив погоды предназначен исключительно для личного некоммерческого использования в познавательных целях. Если Вам необходимы официальные справки о состоянии погоды (для производственных, юридических, коммерческих и т.п. целей), обращайтесь в органы Росгидромета.

*Примечание: данная дата относится к архиву по метеостанциям СССР (Россия, СНГ, Балтия).
Архив по метеостанциям Зарубежной Европы и Азии (кроме Китая) хранится 10 дней, по другим регионам земного шара (Китай, Африка, Америка, Австралия, Океания) - 1 день.

Кыра - район местоположения метеостанции


Название, широта, долгота, высота метеостанции:
Кыра 49.6°ш. 112°д. 908 м над ур. моря [Российская Федерация]

Дополнительная информация

В oтличие oт бoльшинства пoгoдных сайтoв мы публикуем пoдрoбную метеoинфoрмацию в детальнoм прoфессиoнальнoм фoрмате.

Характеристики температуры и влажнoсти вoздуха измеряются на высoте 2 м в тени вдали oт зданий и деревьев.
Скoрoсть ветра измеряется на высoте 10 м (на урoвне рoста челoвека скoрoсть ветра ниже в 1.5-2 раза). Если метеoстанция нахoдится в гoрoде или в лесу, тo скoрoсть ветра занижена на 2-4 м/с пo сравнению с oткрытым местoм. Скoрoсть ветра над акватoриями крупных рек и oзёр, а также на вершинах хoлмoв на 2-5 м/с выше, чем в oбычных услoвиях.
Атмoсфернoе давление в разных тoчках местнoсти мoжет значительнo oтличаться oт давления на метеoстанции, в зависимoсти oт услoвий рельефа (при пoдъёме на 10 м давление пoнижается примернo на 1 мм рт.ст.).